Showing default

GLOBALSTAR M070, 32264

Orbit data source: Space-Track

GLOBALSTAR M070, 32264 is a payload satellite owned by Globalstar (US) in LEO that was launched on Sat, 20 Oct 2007 UTC via a SOYUZ-FG launch vehicle from the Tyuratam Missile And Space Complex (TTMTR). Payload-class satellites include a variety of spacecraft equipped with specific instruments for various scientific and technological missions. These include communications satellites like Starlink; space stations such as the ISS; scientific satellites like the Hubble; Earth observation satellites from companies like Planet Labs, Umbra, and HawkEye 360; GPS; miniature CubeSats for education and research; and military/defense satellites.

Loading next visibility...
Identifier
32264, 2007-048B
Orbit
LEO
Last TLE update
10 hours ago
Origin
Manufacturer
SS/Loral
Mission
Non-operational Commercial Communications
Bus & Motor
LS-400, LS-400 AOCS
Mass
450 kg wet, 380 kg dry
Launch date (UTC)
2007-10-20 (18 years ago)
Launch vehicle
SOYUZ-FG
Launch site
Tyuratam Missile And Space Complex (TTMTR)
Object type
Payload
Rocket body
Debris
Shape & HBR
Box + 2 Pan, 6.0 m
Radar Cross Section
5.587 m², Large (>1 m²)

Expand to show TLE details & history

TLE from 10 hours ago
0 GLOBALSTAR M070
1 32264U 07048B   25199.56490689 -.00000098  00000-0  30170-4 0  9992
2 32264  51.9762  32.9137 0000812  93.3319 305.2310 12.62320197817635
Epoch: 2025-07-18T13:33Z
TLE epoch observation values (Epoch: 2025-07-18T13:33:27.955Z)
Latitude
29.48758°
Longitude
-80.96337°
Altitude
1,414.506 km
Speed
7.157 km/s
True Right ascension
03h 56m 04s
True Declination
29° 21' 10"
Sunlit
Object was in daylight at epoch
Visualization orbit readout
Latitude
28.25013°
Longitude
46.94252°
Altitude
1,414.259 km
Speed
7.157 km/s
Apparent Right ascension
12h 36m 02s
Apparent Declination
-11° 28' 56"
Sunlit
Object is in daylight
Visualization observer readout
Local Sidereal Time
12:24:20
Azimuth
176.333° S
Elevation
38.53°
Doppler factor
1
Orbital elements
Apogee altitude
1,414.411 km
Perigee altitude
1,413.145 km
Semi-major axis
7,791.915 km
Eccentricity
0.00008
Inclination
51.9762°
RAAN
32.9137°
Arg. of periapsis
93.3319°
True anomaly
305.2234°
Mean anomaly
305.231°
Eccentric anomaly
305.2272°
Mean motion
3.15556 °/min
Orbital period
114.08 mins
BSTAR
0.00003017
Loading maneuver chart data...
Loading SW <> Apogee altitude chart data...
Loading historical data...
Loading historical data...
Loading historical data...
Loading historical data...
Loading historical data...
Loading historical data...
Loading historical data...
Other satellites on launch #48 in the year 2007 (2007-10-20 UTC)
|